Location: Baix
(44.7118°N, 4.7648°E)
Time: 03:45:47
(UTC+00:00)

Cosmos 2322 Rocket - Pass Details

Date: 08 December 2022
Orbit: 833 x 849 km, 71.0° (Epoch: 03 February)

Event Time Altitude Azimuth Distance (km) Brightness Sun altitude
Rises 05:22:13 0° 188° (S) 3,385 5.4 -17.6°
Reaches altitude 10° 05:24:42 10° 183° (S) 2,452 4.8 -17.1°
Maximum altitude 05:30:07 51° 109° (ESE) 1,052 3.1 -16.2°
Drops below altitude 10° 05:35:33 10° 35° (NE) 2,458 4.8 -15.3°
Sets 05:38:03 0° 30° (NNE) 3,395 5.5 -14.9°
